Regional Weather Roundup
Issued by NWS

Home | Current Version | Previous Version | Text Only | Print | Product List | Glossary On
Versions: 1 2 3 4 5 6 7 8 9 10 11 12 13 14 15 16 17 18 19 20 21 22 23 24 25 26 27 28 29 30 31 32 33 34 35 36 37 38 39 40 41 42 43 44 45 46 47 48 49 50
000
ASUS43 KDTX 210310
RWRMI
MICHIGAN HOURLY REGIONAL WEATHER ROUNDUP
NATIONAL WEATHER SERVICE DETROIT/PONTIAC MI
ISSUED BY NATIONAL WEATHER SERVICE GRAND RAPIDS MI
1100 PM EDT THU JUL 20 2017

NOTE: "FAIR" INDICATES FEW OR NO CLOUDS BELOW 12,000 FEET WITH NO
SIGNIFICANT WEATHER AND/OR OBSTRUCTION TO VISIBILITY.

MIZ047>049-052>055-059>063-066>070-074>076-081>083-210400-
SOUTHEAST LOWER MICHIGAN

CITY           SKY/WX    TMP DP  RH WIND       PRES   REMARKS
ADRIAN         CLEAR     75  71  87 CALM      29.97R
ALMA           PTCLDY    74  69  83 W10       29.96R
ANN ARBOR      CLEAR     73  71  93 SW5       29.95S
BAD AXE        CLEAR     74  68  83 SW6       29.93S
DETROIT CITY   PTCLDY    81  70  69 CALM      29.94S
DETROIT        MOCLDY    81  71  71 SW8       29.95S
FLINT          CLEAR     73  69  87 CALM      29.95S
GROSSE ILE     CLEAR     78  72  80 CALM      29.94R HAZE
HILLSDALE      CLEAR     72  70  94 CALM      29.98S
HOWELL         MOCLDY    74  69  85 CALM      29.97R

CITY           SKY/WX    TMP DP  RH WIND       PRES   REMARKS
JACKSON        CLEAR     75  71  87 CALM      29.97R
LANSING        CLEAR     73  68  84 CALM      29.97R
MASON          CLEAR     72  70  95 CALM      29.97R
MONROE         CLEAR     76  71  84 SW3       29.94S
MT. CLEMENS    CLEAR     76  69  80 VRB2      29.93S
PONTIAC        PTCLDY    76  70  82 CALM      29.95R
PORT HOPE        N/A     73  69  87 SW5       29.90S
PORT HURON     CLEAR     72  68  88 CALM      29.94S
TRI CITIES     CLEAR     78  71  79 SW8       29.94R
YPSILANTI      CLEAR     75  71  87 SW5       29.95S
$$
MIZ043>046-050>051-056>058-064>065-071>073-077>080-210400-
SOUTHWEST LOWER MICHIGAN

CITY           SKY/WX    TMP DP  RH WIND       PRES   REMARKS
BATTLE CREEK   CLEAR     74  71  91 W7        29.98R
BENTON HARBOR  CLEAR     70  66  87 CALM      29.96F
BIG RAPIDS     CLEAR     71  64  79 W8        29.97S
COLDWATER      CLEAR     73  73  98 CALM      29.98R
HOLLAND        CLEAR     68  66  93 CALM      29.97F
GRAND RAPIDS   PTCLDY    75  70  84 W7        29.97R
KALAMAZOO      CLEAR     74  67  78 NW7       29.97S
MARSHALL       CLEAR     74  73  98 W3        29.97R
MOUNT PLEASANT CLEAR     74  65  73 CALM      29.95R
MUSKEGON       PTCLDY    69  68  96 CALM      29.97S
STURGIS        CLEAR     72  71  97 MISG      29.97S
$$
MIZ016>042-210400-
NORTHERN LOWER MICHIGAN

CITY           SKY/WX    TMP DP  RH WIND       PRES   REMARKS
ALPENA         CLEAR     66  64  93 CALM      29.93R
BEAVER ISLAND  CLEAR     65  64  97 W3        29.96S
BELLAIRE       CLEAR     64  62  94 CALM      29.95S
CADILLAC       CLEAR     66  63  88 CALM      29.98S
CHARLEVOIX     MOCLDY    69  65  85 W5        29.98R
GAYLORD        CLEAR     70  62  76 W3        29.98R
HOUGHTON LAKE  CLEAR     65  58  78 VRB3      29.97S
MANISTEE       CLEAR     65  64  97 CALM      29.96R
OSCODA         CLEAR     69  66  92 W7        29.93R
PELLSTON       MOCLDY    69  64  84 W6        29.95R
TRAVERSE CITY  CLEAR     70  64  81 CALM      29.94R
LUDINGTON      MOCLDY    67  66  97 SW5       29.96S
$$
MIZ007>008-015-210400-
EASTERN UPPER MICHIGAN

CITY           SKY/WX    TMP DP  RH WIND       PRES   REMARKS
KINROSS        CLEAR     60  57  89 NW5       29.95R
MACKINAC ISLAN CLEAR     67  66  94 W5        29.94S
NEWBERRY       CLEAR     60  59  97 CALM      29.95R
S. S. MARIE    CLEAR     63  56  78 NW6       29.93R
$$
MIZ004>006-011>014-085-210400-
CENTRAL UPPER MICHIGAN

CITY           SKY/WX    TMP DP  RH WIND       PRES   REMARKS
MANISTIQUE     CLEAR     61  58  89 CALM      29.95S
ESCANABA       CLEAR     72  62  71 NE3       29.95R
MENOMINEE      CLEAR     73  67  81 CALM      29.94R
SAWYER-GWINN   CLEAR     67  60  78 CALM      29.98S
$$
MIZ001>003-009>011-084-210400-
WESTERN UPPER MICHIGAN

CITY           SKY/WX    TMP DP  RH WIND       PRES   REMARKS
IRON MOUNTAIN  CLEAR     66  58  75 CALM      29.97R
HOUGHTON       CLEAR     62  58  86 NW6       29.95R
COPPER HARBOR    N/A     60  56  86 CALM      29.92R
IRONWOOD       CLEAR     66  64  93 CALM      29.98R
$$

ABBREVIATIONS USED IN REMARKS
   TC - TEMPERATURE IN CELSIUS
  WCI - WIND CHILL INDEX
   HX - HEAT INDEX
  VSB - VISIBILITY





USA.gov is the U.S. government's official web portal to all federal, state and local government web resources and services.